Change the Weather History Date:

Friday, October 18, 2013

  Actual Average (KPCZ) Record (KPCZ)
Temperature  
Mean Temperature 40 °F -  
Max Temperature 46 °F 57 °F 86 °F (1950)
Min Temperature 34 °F 35 °F 18 °F (1948)
Degree Days  
Heating Degree Days 25    
Moisture  
Dew Point 42 °F    
Average Humidity 93    
Maximum Humidity 100    
Minimum Humidity 76    
Precipitation  
Precipitation 0.00 in - - ()
Sea Level Pressure  
Sea Level Pressure 29.86 in    
Wind  
Wind Speed 7 mph (West)    
Max Wind Speed 18 mph    
Max Gust Speed 24 mph    
Visibility 9 miles    
Events      
Averages and records for this station are not official NWS values.
T = Trace of Precipitation, MM = Missing Value Source: NWS Daily Summary

Daily Weather History Graph

Daily Weather History Graph

Search for Another Location

Airport or City:

Trip Planner

Search our weather history database for the weather conditions in past years. The results will help you decide how hot, cold, wet, or windy it might be!

Date:

Astronomy

Oct. 18, 2013 Rise Set
Actual Time 7:15 AM CDT 6:07 PM CDT
Civil Twilight 6:46 AM CDT 6:37 PM CDT
Nautical Twilight 6:13 AM CDT 7:10 PM CDT
Astronomical Twilight 5:39 AM CDT 7:44 PM CDT
Moon 5:57 PM CDT (10/18) 6:51 AM CDT (10/18)
Length of Visible Light 11h 50m
Length of Day
10h 52m
Full, 100% of the Moon is Illuminated
Oct 18
Full
Oct 18
Full
Oct 26
Last Quarter
Nov 3
New
Nov 9
First Quarter

Hourly Weather History & Observations

Time (CDT) Temp. Windchill Dew Point Humidity Pressure Visibility Wind Dir Wind Speed Gust Speed Precip Events Conditions
12:56 AM 39.9 °F - - N/A% 29.80 in 8.0 mi Calm Calm - N/A   Overcast
1:56 AM 39.9 °F - - N/A% 29.80 in 10.0 mi Calm Calm - N/A   Mostly Cloudy
2:56 AM 41.9 °F - 41.9 °F 100% 29.78 in 10.0 mi Calm Calm - 0.00 in   Overcast
3:56 AM 41.9 °F - 41.9 °F 100% 29.78 in 10.0 mi Calm Calm - N/A   Overcast
4:56 AM 41.9 °F - 41.9 °F 100% 29.78 in 10.0 mi Calm Calm - N/A   Mostly Cloudy
5:56 AM 38.8 °F 36.5 °F 38.8 °F 100% 29.79 in 10.0 mi SW 3.5 mph - N/A   Clear
6:56 AM 41.0 °F 37.1 °F - N/A% 29.81 in 10.0 mi SW 5.8 mph - N/A   Partly Cloudy
7:56 AM 41.9 °F 37.5 °F - N/A% 29.82 in 10.0 mi SW 6.9 mph - N/A   Mostly Cloudy
8:48 AM 44.6 °F 40.7 °F - N/A% 29.82 in 8.0 mi WSW 6.9 mph - N/A   Overcast
8:56 AM 45.0 °F 41.8 °F - N/A% 29.83 in 6.0 mi WSW 5.8 mph - N/A   Haze
9:56 AM 46.9 °F - 46.9 °F 100% 29.85 in 10.0 mi West 15.0 mph - N/A   Overcast
10:03 AM 46.4 °F 40.4 °F 46.4 °F 100% 29.84 in 6.0 mi West 13.8 mph - N/A   Overcast
10:14 AM 46.4 °F 40.7 °F 46.4 °F 100% 29.84 in 10.0 mi West 12.7 mph - N/A   Overcast
10:56 AM 46.9 °F - 46.9 °F 100% 29.85 in 10.0 mi West 13.8 mph 20.7 mph N/A   Overcast
11:05 AM 46.4 °F 39.2 °F 46.4 °F 100% 29.85 in 7.0 mi West 18.4 mph 24.2 mph N/A   Overcast
11:12 AM 46.4 °F 40.1 °F 46.4 °F 100% 29.85 in 8.0 mi West 15.0 mph - N/A   Overcast
11:18 AM 46.4 °F 40.4 °F 46.4 °F 100% 29.86 in 7.0 mi West 13.8 mph - N/A   Overcast
11:36 AM 44.6 °F 38.4 °F 44.6 °F 100% 29.86 in 9.0 mi West 12.7 mph 21.9 mph 0.00 in   Overcast
11:56 AM 45.9 °F 39.4 °F 45.9 °F 100% 29.87 in 10.0 mi West 15.0 mph 21.9 mph 0.00 in   Overcast
12:12 PM 46.4 °F 39.5 °F 44.6 °F 93% 29.86 in 10.0 mi West 17.3 mph 21.9 mph N/A   Overcast
12:26 PM 46.4 °F 39.5 °F 42.8 °F 87% 29.86 in 10.0 mi West 17.3 mph 21.9 mph N/A   Overcast
12:56 PM 46.4 °F 41.1 °F 42.8 °F 87% 29.86 in 10.0 mi West 11.5 mph 21.9 mph N/A   Overcast
1:25 PM 46.4 °F 40.1 °F 42.8 °F 87% 29.86 in 10.0 mi WNW 15.0 mph - N/A   Overcast
1:56 PM 45.0 °F 38.2 °F 41.0 °F 86% 29.88 in 10.0 mi West 15.0 mph 20.7 mph N/A   Overcast
2:17 PM 44.6 °F 38.1 °F 42.8 °F 93% 29.87 in 10.0 mi West 13.8 mph 20.7 mph N/A   Overcast
2:56 PM 45.0 °F 38.2 °F 41.9 °F 89% 29.88 in 10.0 mi West 15.0 mph - N/A   Overcast
3:14 PM 44.6 °F 38.1 °F 41.0 °F 87% 29.88 in 10.0 mi WNW 13.8 mph - N/A   Overcast
3:56 PM 45.0 °F 38.5 °F 38.8 °F 79% 29.89 in 10.0 mi WNW 13.8 mph - N/A   Overcast
4:56 PM 45.0 °F 39.3 °F 38.8 °F 79% 29.90 in 10.0 mi WNW 11.5 mph - N/A   Overcast
5:33 PM 44.6 °F 39.2 °F 37.4 °F 76% 29.90 in 10.0 mi NW 10.4 mph - N/A   Overcast
5:56 PM 43.9 °F 39.3 °F 36.9 °F 76% 29.92 in 10.0 mi NW 8.1 mph - N/A   Scattered Clouds
6:56 PM 41.9 °F 40.0 °F 36.9 °F 82% 29.93 in 10.0 mi West 3.5 mph - N/A   Mostly Cloudy
7:56 PM 38.8 °F - 37.9 °F 97% 29.94 in 10.0 mi Calm Calm - N/A   Clear
8:56 PM 36.9 °F - 36.9 °F 100% 29.94 in 10.0 mi Calm Calm - N/A   Clear
9:56 PM 36.0 °F - 36.0 °F 100% 29.93 in 10.0 mi Calm Calm - N/A   Clear
10:56 PM 34.9 °F - 34.9 °F 100% 29.92 in 10.0 mi Calm Calm - N/A   Clear
11:56 PM 34.9 °F - - N/A% 29.91 in 10.0 mi Calm Calm - N/A   Clear